Wind_Speed
12 12 12 11 11 11 11 11 11 11 10 10 9 8 7 6 7 6 6 6 7 7 7 7 6 6 6 5 5 5 5 6 6 7 6 5 6 6 7 7 7 7 8
12 12 12 11 10 10 10 10 11 11 10 10 9 8 8 7 7 7 7 7 7 8 8 8 7 7 6 6 6 6 6 7 7 6 6 7 7 7 8 8 8 8 8
12 12 12 12 11 11 11 10 11 11 10 9 9 8 8 8 7 8 8 8 9 9 9 8 8 8 7 7 7 7 7 7 7 6 7 7 7 8 8 8 9 8 8
11 12 12 12 11 11 11 11 11 11 11 9 9 9 9 9 9 9 9 9 10 9 9 9 9 8 8 8 8 8 8 8 8 9 9 9 9 9 10 10 10 10 10
11 12 13 12 12 11 11 11 12 12 12 11 10 10 9 9 9 9 10 10 10 10 10 9 9 9 9 9 9 10 10 10 10 11 11 11 11 11 11 11 12 12 12
11 12 12 12 12 12 12 12 12 12 12 12 11 11 11 10 10 10 11 11 11 11 10 10 10 10 10 10 11 12 12 12 12 13 13 13 13 13 13 13 13 14 15
12 13 13 13 13 13 13 12 12 12 12 12 12 12 12 11 11 11 11 11 12 12 11 11 12 12 12 12 13 13 13 14 14 14 14 15 15 15 15 16 16 16 16
12 14 14 14 14 14 14 13 13 13 13 13 13 13 13 11 11 11 11 11 12 12 13 13 13 13 14 14 14 14 15 15 16 16 17 17 17 18 18 18 18 18 18
13 14 15 14 15 15 15 14 14 14 14 14 14 13 13 12 12 12 12 12 13 14 14 14 15 15 15 15 16 17 17 18 18 18 19 19 20 20 21 21 21 21 21
14 15 15 15 15 16 15 15 15 15 14 14 14 14 14 13 13 13 14 14 15 15 15 16 16 16 17 17 18 19 19 20 20 21 21 22 22 23 23 23 23 23 24
15 15 16 16 16 16 16 16 17 16 16 16 15 15 15 15 15 14 15 16 16 16 16 17 18 18 18 19 20 21 21 21 22 22 23 24 24 24 25 25 25 25 25
15 15 16 17 17 17 17 17 18 18 18 18 17 17 17 17 17 17 17 17 17 17 18 19 20 20 20 21 21 21 22 22 23 23 24 24 24 25 25 26 27 28 28
15 16 17 17 18 18 18 18 19 19 19 19 19 19 18 19 19 19 19 19 20 20 20 21 21 21 21 21 22 22 22 23 23 23 23 24 25 25 26 26 27 29 29
16 17 18 19 19 19 20 20 21 20 20 20 20 20 20 20 20 20 20 20 21 21 20 22 22 23 23 23 23 23 24 24 24 23 23 24 24 25 26 27 27 28 29
18 18 19 20 20 20 21 21 22 22 22 22 22 21 21 21 21 22 21 21 22 22 22 23 24 24 23 24 24 25 25 25 25 25 25 25 26 27 27 28 28 29 29
21 21 20 21 22 21 22 22 23 23 23 23 23 23 22 23 23 23 22 22 23 24 25 25 24 24 25 25 25 26 26 26 26 27 27 27 27 28 28 29 30 30 30
23 24 23 23 23 23 24 24 24 24 24 24 24 24 24 24 24 24 23 24 25 26 25 25 25 25 25 25 26 26 26 27 27 28 28 28 29 29 30 30 30 31 31
25 26 25 25 25 25 25 25 25 24 24 25 25 25 25 25 25 25 26 26 26 26 26 25 25 25 25 26 27 27 28 28 28 29 29 29 29 29 30 30 31 30 30
26 27 26 26 26 26 26 25 26 25 25 25 25 25 26 26 26 27 27 27 27 27 26 27 26 26 27 28 28 29 29 29 29 29 29 29 30 29 29 30 31 31 30
26 27 27 26 26 26 26 27 27 26 25 25 25 26 26 27 27 27 27 28 28 28 28 27 27 27 28 28 29 29 29 29 29 29 29 29 29 29 29 30 31 31 30
26 27 27 27 27 26 26 26 26 25 25 26 27 27 27 28 27 27 27 28 29 28 28 28 28 28 28 29 29 29 29 29 29 30 30 30 30 29 30 30 31 31 30
27 28 27 27 26 25 26 26 25 26 27 27 28 28 28 28 27 27 28 29 28 28 28 28 28 28 28 28 29 29 29 29 30 30 30 30 30 29 30 30 31 31 31
28 28 28 27 27 26 26 26 26 27 27 28 28 27 28 28 28 29 29 29 29 28 28 28 28 28 28 28 29 29 29 30 30 30 31 31 30 30 30 31 31 31 31
27 27 27 27 26 26 26 27 27 27 28 29 29 28 28 29 29 29 29 30 29 28 28 28 27 27 27 28 29 29 29 29 30 30 31 30 30 30 31 30 30 30 29
27 27 27 26 27 27 26 26 26 27 27 28 28 27 27 27 28 28 29 29 29 28 28 28 28 27 27 27 28 28 29 29 30 30 30 30 30 30 30 30 29 28 28
26 26 26 25 25 25 25 26 27 27 27 27 28 28 27 27 27 27 27 27 26 27 27 28 27 27 27 28 28 28 29 29 30 30 30 30 30 29 28 28 28 27 26
Wind_Direction
12 10 11 17 15 13 10 6 4 3 4 6 8 5 360 356 351 351 351 353 352 354 356 350 340 333 330 321 316 317 316 317 318 316 307 298 295 289 288 287 285 278 271
6 7 7 10 10 8 7 5 4 3 3 3 360 359 355 350 345 341 339 338 336 338 340 343 339 329 325 322 316 317 319 319 318 314 308 300 294 288 286 287 285 279 273
3 4 4 5 3 1 1 4 2 1 360 356 352 349 345 341 339 336 331 328 324 323 328 328 328 324 321 318 316 316 319 317 318 315 309 302 293 293 292 291 288 282 276
358 357 359 360 357 357 358 358 359 356 354 351 346 345 341 335 330 327 324 320 317 317 326 326 324 318 314 313 313 312 312 312 310 309 306 300 294 290 287 285 285 283 282
351 352 352 352 353 353 352 352 351 350 349 346 342 340 332 325 320 320 320 321 318 316 320 320 321 316 309 307 304 306 305 304 304 303 301 298 295 290 288 285 283 282 282
343 347 347 346 348 347 345 345 344 344 343 341 337 334 327 323 322 320 318 318 315 314 313 312 314 313 309 305 302 300 300 299 298 297 297 296 294 289 285 283 281 279 279
334 336 339 338 340 340 340 337 336 335 335 334 332 330 327 321 318 317 316 316 315 314 311 309 308 307 305 303 301 299 297 297 296 294 292 292 292 289 285 283 280 277 277
327 330 331 331 333 334 333 330 328 328 329 327 326 327 325 318 314 314 315 315 313 312 310 305 304 304 302 302 301 299 296 295 294 293 291 289 289 288 286 282 279 276 274
326 325 323 326 328 328 327 325 322 322 323 323 325 325 322 315 313 311 311 311 309 308 310 310 307 303 301 301 302 301 298 296 294 293 292 290 287 285 284 283 279 274 272
319 319 321 323 324 323 323 321 318 317 317 318 320 322 320 313 310 310 311 311 309 307 307 308 308 306 302 300 300 300 298 297 294 292 291 289 287 285 284 281 279 276 274
313 316 318 318 319 320 320 319 318 318 318 318 318 317 315 313 309 307 310 310 307 305 305 306 306 305 302 299 297 297 299 298 296 294 291 289 286 284 282 281 280 280 278
309 311 313 314 315 317 317 316 316 316 315 314 314 313 311 311 308 305 304 305 305 306 307 307 307 306 305 303 301 301 300 299 298 296 293 291 288 286 284 282 281 280 278
305 308 308 310 311 312 312 311 310 310 309 309 309 309 308 308 306 304 302 303 304 304 305 306 307 306 304 304 304 304 302 301 301 299 296 294 291 289 287 285 283 282 280
299 303 306 307 309 308 308 308 305 306 306 306 305 305 305 304 304 303 303 302 302 302 303 305 304 304 303 302 303 303 302 301 301 300 298 296 294 292 291 289 287 285 283
298 300 302 304 307 307 306 306 305 304 304 304 303 303 303 302 302 303 303 302 302 302 301 302 303 302 301 300 301 302 301 301 300 299 298 296 294 293 291 290 288 286 284
297 298 300 302 303 304 304 303 303 301 301 302 302 302 301 301 300 302 301 301 301 301 300 300 300 300 300 301 302 301 300 300 299 298 297 296 294 293 292 291 289 287 285
297 298 300 301 301 302 303 302 302 300 300 301 301 302 301 300 300 300 299 299 299 300 301 299 299 301 302 301 302 301 300 300 299 299 298 297 296 295 293 292 291 289 287
298 299 298 298 299 301 303 302 302 300 300 300 300 300 301 300 300 299 299 299 299 299 299 300 302 301 299 300 300 299 299 299 299 299 297 297 297 297 294 293 292 291 289
296 298 296 297 299 300 301 301 301 300 299 300 300 300 299 298 298 298 297 298 298 299 299 301 301 300 300 300 300 300 301 300 299 298 298 297 297 296 294 294 293 292 291
294 296 296 297 299 299 299 300 300 300 300 300 299 298 298 297 298 298 298 298 299 299 301 302 302 300 299 299 300 301 301 301 299 300 300 299 298 297 296 295 294 293 292
294 295 295 296 298 299 299 299 299 300 299 299 298 297 297 297 298 299 299 300 300 298 299 300 300 301 300 299 298 299 300 300 302 303 303 302 300 298 297 296 296 295 293
293 295 295 295 297 298 298 299 299 299 299 299 298 297 298 298 299 298 299 299 300 299 299 299 299 300 301 301 301 299 299 300 302 302 303 302 300 299 298 296 295 294 294
292 294 296 294 294 296 297 297 297 298 299 299 299 298 297 298 297 298 299 299 299 299 298 297 298 299 300 301 300 299 299 301 303 303 303 302 301 301 299 297 294 293 292
290 292 294 295 294 295 296 297 297 298 299 300 299 297 296 297 298 299 299 298 298 298 298 298 299 299 300 300 300 300 299 302 305 305 304 302 301 301 301 298 296 293 292
290 293 295 295 295 295 296 298 298 299 300 300 300 300 301 302 300 300 299 298 297 297 298 299 300 299 300 300 300 301 300 302 304 306 305 303 302 301 300 298 296 294 292
289 291 293 294 295 296 297 297 298 298 300 302 304 304 304 303 303 302 301 300 300 300 300 300 301 302 301 300 301 301 301 302 304 306 306 304 304 303 302 299 297 295 294
Height
5907 5905 5903 5901 5899 5897 5895 5894 5892 5890 5888 5886 5884 5883 5882 5881 5880 5879 5878 5877 5875 5874 5873 5872 5871 5870 5869 5868 5867 5866 5864 5863 5862 5860 5859 5859 5858 5857 5857 5856 5856 5856 5855
5907 5905 5903 5901 5899 5897 5895 5893 5891 5889 5887 5885 5884 5883 5881 5880 5879 5878 5877 5876 5874 5873 5872 5870 5869 5868 5867 5866 5865 5864 5863 5862 5860 5859 5858 5857 5857 5855 5855 5854 5854 5853 5853
5907 5905 5903 5900 5899 5897 5895 5893 5891 5888 5886 5885 5883 5882 5881 5879 5878 5877 5876 5874 5872 5871 5870 5869 5867 5866 5865 5864 5863 5862 5861 5859 5858 5857 5856 5855 5854 5853 5852 5852 5851 5850 5850
5906 5904 5902 5900 5898 5896 5894 5892 5890 5888 5885 5883 5882 5881 5879 5878 5876 5875 5874 5872 5871 5870 5868 5867 5866 5864 5863 5862 5861 5860 5858 5857 5856 5855 5854 5853 5852 5851 5850 5849 5848 5847 5847
5905 5903 5902 5900 5898 5895 5893 5891 5889 5887 5885 5883 5881 5880 5878 5876 5875 5873 5872 5870 5869 5867 5866 5865 5863 5862 5861 5860 5858 5857 5856 5854 5853 5852 5850 5849 5848 5848 5847 5846 5845 5844 5843
5904 5902 5900 5898 5896 5894 5892 5890 5887 5885 5883 5881 5879 5878 5876 5874 5873 5871 5869 5868 5867 5865 5863 5862 5861 5859 5858 5857 5855 5854 5852 5851 5850 5848 5847 5846 5845 5844 5843 5842 5841 5840 5839
5902 5900 5898 5896 5895 5892 5890 5888 5886 5884 5881 5879 5877 5875 5873 5871 5870 5869 5867 5865 5864 5862 5860 5859 5858 5857 5855 5854 5852 5850 5849 5847 5846 5845 5843 5842 5840 5839 5838 5837 5836 5835 5834
5900 5898 5896 5894 5892 5890 5888 5886 5884 5881 5879 5877 5875 5873 5871 5869 5868 5866 5865 5863 5861 5860 5858 5856 5855 5853 5851 5850 5848 5846 5845 5843 5842 5840 5838 5837 5835 5834 5833 5832 5831 5830 5829
5897 5896 5894 5892 5890 5888 5886 5884 5882 5879 5877 5875 5873 5870 5868 5867 5865 5863 5862 5860 5858 5856 5854 5852 5850 5849 5847 5845 5844 5842 5840 5838 5836 5835 5833 5832 5830 5828 5827 5825 5825 5824 5823
5895 5893 5891 5889 5887 5885 5883 5880 5878 5877 5875 5872 5870 5868 5866 5864 5862 5860 5858 5857 5855 5853 5850 5848 5846 5844 5842 5840 5839 5837 5835 5833 5831 5829 5827 5825 5824 5822 5820 5819 5817 5816 5816
5891 5890 5887 5886 5884 5881 5879 5877 5874 5873 5871 5869 5867 5865 5863 5860 5858 5856 5854 5853 5850 5848 5846 5844 5841 5839 5837 5835 5833 5831 5829 5827 5825 5822 5820 5819 5817 5815 5813 5811 5810 5809 5808
5888 5886 5884 5883 5880 5878 5876 5873 5871 5869 5867 5865 5863 5861 5859 5856 5854 5852 5850 5848 5845 5843 5841 5839 5836 5834 5831 5829 5827 5824 5822 5820 5818 5816 5814 5811 5809 5807 5805 5804 5802 5801 5800
5885 5883 5881 5879 5877 5874 5872 5870 5868 5865 5862 5860 5858 5856 5854 5852 5849 5847 5845 5843 5840 5838 5835 5833 5830 5828 5826 5823 5821 5818 5816 5814 5811 5809 5806 5804 5802 5800 5797 5795 5794 5792 5790
5880 5878 5876 5874 5872 5870 5868 5866 5863 5860 5858 5855 5853 5851 5849 5847 5844 5842 5839 5837 5834 5832 5829 5827 5825 5822 5819 5817 5814 5812 5810 5807 5804 5802 5799 5796 5794 5792 5790 5787 5785 5783 5781
5875 5873 5871 5869 5867 5865 5862 5860 5857 5855 5852 5850 5848 5845 5843 5841 5839 5836 5834 5831 5828 5825 5823 5821 5818 5816 5813 5810 5807 5805 5802 5800 5797 5794 5791 5789 5786 5783 5781 5779 5776 5774 5772
5870 5868 5866 5864 5861 5859 5856 5854 5852 5849 5846 5844 5842 5839 5837 5835 5832 5830 5828 5825 5823 5820 5817 5814 5812 5809 5806 5803 5800 5798 5795 5792 5789 5787 5784 5781 5778 5775 5772 5769 5767 5764 5762
5863 5862 5859 5857 5855 5852 5850 5848 5845 5843 5840 5838 5835 5833 5831 5828 5826 5824 5822 5819 5816 5813 5810 5807 5805 5802 5799 5796 5793 5790 5787 5784 5781 5778 5775 5772 5769 5766 5763 5760 5757 5755 5752
5857 5855 5852 5850 5848 5846 5843 5841 5838 5836 5834 5831 5828 5826 5824 5821 5819 5817 5814 5812 5809 5806 5803 5800 5797 5795 5792 5789 5786 5783 5780 5777 5774 5770 5767 5764 5760 5757 5754 5751 5748 5744 5742
5850 5848 5846 5843 5841 5839 5836 5834 5831 5829 5827 5824 5822 5819 5817 5814 5812 5809 5806 5804 5801 5799 5795 5793 5790 5788 5785 5782 5779 5775 5772 5769 5765 5762 5758 5755 5751 5748 5745 5742 5739 5736 5733
5843 5840 5838 5836 5833 5831 5828 5826 5824 5822 5819 5817 5815 5812 5809 5807 5804 5801 5799 5796 5793 5791 5788 5785 5782 5780 5777 5774 5771 5767 5764 5761 5757 5753 5749 5746 5743 5739 5736 5733 5730 5727 5724
5834 5833 5831 5829 5826 5823 5821 5819 5817 5815 5812 5810 5807 5804 5802 5799 5796 5793 5790 5788 5785 5783 5780 5777 5774 5772 5769 5765 5762 5759 5755 5752 5748 5745 5741 5738 5734 5731 5727 5724 5721 5718 5715
5827 5825 5823 5821 5819 5816 5814 5812 5810 5807 5804 5802 5799 5796 5794 5791 5788 5785 5782 5780 5777 5774 5771 5769 5766 5763 5760 5757 5753 5750 5747 5743 5740 5737 5733 5729 5725 5722 5718 5715 5712 5709 5706
5821 5819 5816 5814 5811 5809 5807 5805 5802 5800 5797 5794 5791 5788 5786 5783 5780 5777 5774 5772 5769 5765 5763 5760 5757 5755 5751 5748 5745 5742 5738 5735 5732 5728 5724 5721 5717 5713 5709 5706 5703 5700 5697
5813 5812 5809 5806 5804 5802 5800 5797 5795 5792 5789 5786 5783 5780 5778 5775 5772 5769 5766 5763 5760 5757 5755 5752 5749 5746 5743 5740 5737 5733 5730 5727 5723 5719 5716 5712 5708 5704 5701 5697 5694 5691 5688
5806 5804 5802 5799 5797 5795 5793 5790 5787 5785 5782 5779 5776 5772 5769 5766 5763 5760 5757 5754 5752 5749 5746 5744 5741 5738 5735 5732 5729 5725 5722 5719 5715 5711 5707 5703 5700 5696 5692 5688 5685 5682 5680
5798 5796 5794 5792 5790 5788 5786 5783 5780 5778 5775 5772 5769 5765 5762 5758 5755 5752 5749 5746 5744 5741 5738 5736 5733 5730 5727 5724 5721 5717 5714 5710 5707 5703 5699 5695 5691 5688 5684 5681 5677 5674 5672